{"data":{"norad_id":48211,"intl_designator":"2021-031B","name":"ONEWEB-0184","alt_names":[],"object_type":"PAYLOAD","status":"ACTIVE","operator":null,"country":"UK","launch_date":"2021-04-25","launch_site_code":"VOSTO","launch_vehicle":null,"mission":null,"orbit_class":"UNKNOWN","rcs_meters":null,"size_class":null,"mass_kg":null,"dimensions":null,"purposes":["comms"],"wikipedia_slug":null,"has_3d_model":false,"image_url":null,"decayed_at":null,"tle_current":{"epoch":"2026-05-25T03:56:48.494688Z","epoch_age_seconds":57309,"freshness":"FRESH","line1":"1 48211U 21031B   26145.16445017  .00000217  00000+0  55204-3 0  9997","line2":"2 48211  87.8952 294.2897 0001043  87.4711 272.6538 13.14501492245266","mean_motion":13.14501492,"eccentricity":0.0001043,"inclination_deg":87.8952,"raan_deg":294.2897,"arg_perigee_deg":87.4711,"mean_anomaly_deg":272.6538,"bstar":0.00055204,"rev_number":24526,"period_min":109.54723206963,"perigee_km":1205.0043814402,"apogee_km":1206.5863897359,"semimajor_km":7583.932385588,"source":"CELESTRAK","updated_at":"2026-05-25T13:38:22.395767Z"}}}